Oakes, ND

8:00 PM CDT on September 22, 2017 (GMT -0500)
Oakes

Weather History for K2D5 - September, 2013

Change the Weather History Date:

Monday, September 9, 2013

  Actual Average (KP67) Record (KP67)
Temperature  
Mean Temperature 68 °F -  
Max Temperature 75 °F 74 °F 84 °F (1996)
Min Temperature 62 °F 50 °F 48 °F (1997)
Cooling Degree Days 4    
Growing Degree Days 18 (Base 50)    
Moisture  
Dew Point 67 °F    
Average Humidity 95    
Maximum Humidity 100    
Minimum Humidity 78    
Precipitation  
Precipitation 1.58 in - - ()
Sea Level Pressure  
Sea Level Pressure 29.73 in    
Wind  
Wind Speed - (North)    
Max Wind Speed -    
Max Gust Speed -    
Visibility 8 miles    
Events Rain , Thunderstorm    
Averages and records for this station are not official NWS values.
T = Trace of Precipitation, MM = Missing Value Source: NWS Daily Summary

Daily Weather History Graph

Daily Weather History Graph

Search for Another Location

Airport or City:

Trip Planner

Search our weather history database for the weather conditions in past years. The results will help you decide how hot, cold, wet, or windy it might be!

Date:

Astronomy

Sep. 09, 2013 Rise Set
Actual Time 7:03 AM CDT 7:54 PM CDT
Civil Twilight 6:32 AM CDT 8:25 PM CDT
Nautical Twilight 5:56 AM CDT 9:01 PM CDT
Astronomical Twilight 5:18 AM CDT 9:39 PM CDT
Moon 11:43 AM CDT (9/9) 9:54 PM CDT (9/9)
Length of Visible Light 13h 52m
Length of Day
12h 51m
Waxing Crescent, 19% of the Moon is Illuminated
Sep 9
Waxing Crescent
Sep 12
First Quarter
Sep 19
Full
Sep 26
Last Quarter
Oct 4
New

Hourly Weather History & Observations

Time (CDT) Temp. Dew Point Humidity Pressure Visibility Wind Dir Wind Speed Gust Speed Precip Events Conditions
12:15 AM 66.2 °F 66.2 °F 100% 29.80 in 2.5 mi North - - N/A   Mist
12:35 AM 66.2 °F 66.2 °F 100% 29.79 in 3.0 mi North - - N/A   Mist
12:55 AM 66.2 °F 66.2 °F 100% 29.78 in 2.5 mi North - - N/A   Mist
1:15 AM 66.2 °F 66.2 °F 100% 29.77 in 2.0 mi North - - N/A   Mist
1:35 AM 66.2 °F 66.2 °F 100% 29.74 in 2.0 mi North - - N/A   Mist
1:55 AM 66.2 °F 66.2 °F 100% 29.74 in 1.8 mi North - - N/A   Mist
2:15 AM 66.2 °F 66.2 °F 100% 29.73 in 2.0 mi North - - N/A   Mist
2:35 AM 66.2 °F 66.2 °F 100% 29.68 in 1.2 mi North - - N/A Thunderstorm Unknown
2:55 AM 66.2 °F 66.2 °F 100% 29.70 in 2.5 mi North - - 0.04 in Rain , Thunderstorm Light Thunderstorms and Rain
3:15 AM 66.2 °F 66.2 °F 100% 29.69 in 3.0 mi North - - N/A Thunderstorm Mist
3:35 AM 66.2 °F 66.2 °F 100% 29.88 in 2.5 mi North - - N/A Thunderstorm Mist
3:55 AM 62.6 °F 62.6 °F 100% 29.75 in 1.2 mi North - - 1.44 in Rain , Thunderstorm Heavy Rain
4:15 AM 62.6 °F 62.6 °F 100% 29.74 in 4.0 mi North - - 0.04 in Rain , Thunderstorm Light Thunderstorms and Rain
4:35 AM 64.4 °F 64.4 °F 100% 29.71 in 5.0 mi North - - 0.05 in Rain , Thunderstorm Light Rain
4:55 AM 64.4 °F 64.4 °F 100% 29.68 in 5.0 mi North - - 0.08 in Rain , Thunderstorm Light Thunderstorms and Rain
5:15 AM 64.4 °F 64.4 °F 100% 29.67 in 7.0 mi North - - N/A Rain Light Rain
5:35 AM 66.2 °F 66.2 °F 100% 29.67 in 8.0 mi North - - 0.01 in Rain Light Rain
5:55 AM 66.2 °F 66.2 °F 100% 29.67 in 7.0 mi North - - 0.02 in Rain Light Rain
6:15 AM 66.2 °F 66.2 °F 100% 29.68 in 9.0 mi North - - N/A Rain Light Rain
6:35 AM 66.2 °F 66.2 °F 100% 29.65 in 10.0 mi North - - N/A Rain Light Rain
6:55 AM 66.2 °F 66.2 °F 100% 29.64 in 10.0 mi North - - N/A Rain Light Rain
7:15 AM 66.2 °F 66.2 °F 100% 29.65 in 10.0 mi North - - N/A   Unknown
7:35 AM 66.2 °F 66.2 °F 100% 29.65 in 10.0 mi North - - N/A   Unknown
7:55 AM 66.2 °F 66.2 °F 100% 29.66 in 10.0 mi North - - N/A   Unknown
8:15 AM 66.2 °F 66.2 °F 100% 29.67 in 10.0 mi North - - N/A   Unknown
8:35 AM 66.2 °F 66.2 °F 100% 29.67 in 10.0 mi North - - N/A   Unknown
8:55 AM 66.2 °F 66.2 °F 100% 29.67 in 10.0 mi North - - N/A   Unknown
9:15 AM 66.2 °F 66.2 °F 100% 29.67 in 8.0 mi North - - N/A   Unknown
9:35 AM 68.0 °F 68.0 °F 100% 29.67 in 7.0 mi North - - N/A   Unknown
9:55 AM 68.0 °F 68.0 °F 100% 29.66 in 5.0 mi North - - N/A   Mist
10:15 AM 68.0 °F 68.0 °F 100% 29.67 in 5.0 mi North - - N/A   Mist
10:35 AM 71.6 °F 71.6 °F 100% 29.67 in 5.0 mi North - - N/A   Mist
10:55 AM 71.6 °F 71.6 °F 100% 29.67 in 9.0 mi North - - N/A   Unknown
11:15 AM 73.4 °F 73.4 °F 100% 29.66 in 10.0 mi North - - N/A   Unknown
11:35 AM 73.4 °F 73.4 °F 100% 29.66 in 10.0 mi North - - N/A   Unknown
11:55 AM 75.2 °F 71.6 °F 89% 29.66 in 10.0 mi North - - N/A   Unknown
12:15 PM 75.2 °F 69.8 °F 83% 29.67 in 10.0 mi North - - N/A   Unknown
12:35 PM 73.4 °F 69.8 °F 88% 29.67 in 10.0 mi North - - N/A   Unknown
12:55 PM 75.2 °F 69.8 °F 83% 29.67 in 10.0 mi North - - N/A   Unknown
1:15 PM 75.2 °F 68.0 °F 78% 29.67 in 10.0 mi North - - N/A   Unknown
1:35 PM 75.2 °F 69.8 °F 83% 29.68 in 10.0 mi North - - N/A   Unknown
1:55 PM 75.2 °F 68.0 °F 78% 29.68 in 10.0 mi North - - N/A   Unknown
2:15 PM 73.4 °F 68.0 °F 83% - 10.0 mi North - - N/A   Unknown
2:35 PM - - N/A% - - North - - N/A   Unknown
2:55 PM - - N/A% - - North - - N/A   Unknown
3:15 PM - - N/A% - - North - - N/A   Unknown
3:35 PM - - N/A% - - North - - N/A   Unknown
3:55 PM - - N/A% - - North - - N/A   Unknown
4:15 PM 73.4 °F 66.2 °F 78% 29.71 in 10.0 mi North - - N/A   Unknown
4:35 PM 73.4 °F 66.2 °F 78% 29.72 in 10.0 mi North - - N/A   Unknown
4:55 PM 73.4 °F 66.2 °F 78% 29.73 in 10.0 mi North - - N/A   Unknown
5:15 PM 73.4 °F 68.0 °F 83% 29.73 in 10.0 mi North - - N/A   Unknown
5:35 PM 73.4 °F 68.0 °F 83% 29.74 in 10.0 mi North - - N/A   Unknown
5:55 PM 73.4 °F 68.0 °F 83% 29.75 in 10.0 mi North - - N/A   Unknown
6:15 PM 73.4 °F 68.0 °F 83% 29.75 in 10.0 mi North - - N/A   Unknown
6:35 PM 73.4 °F 68.0 °F 83% 29.76 in 10.0 mi North - - N/A   Unknown
6:55 PM 71.6 °F 68.0 °F 88% 29.77 in 10.0 mi North - - N/A   Unknown
7:15 PM 71.6 °F 66.2 °F 83% 29.77 in 10.0 mi North - - N/A   Unknown
7:35 PM 69.8 °F 66.2 °F 88% 29.78 in 10.0 mi North - - N/A   Unknown
7:55 PM 68.0 °F 68.0 °F 100% 29.79 in 10.0 mi North - - N/A   Unknown
8:15 PM 68.0 °F 68.0 °F 100% 29.80 in 10.0 mi North - - N/A   Unknown
8:35 PM 66.2 °F 66.2 °F 100% 29.80 in 10.0 mi North - - N/A   Unknown
8:55 PM 66.2 °F 66.2 °F 100% 29.81 in 10.0 mi North - - N/A   Unknown
9:15 PM 66.2 °F 66.2 °F 100% 29.82 in 10.0 mi North - - N/A   Unknown
9:35 PM 66.2 °F 66.2 °F 100% 29.83 in 10.0 mi North - - N/A   Unknown
9:55 PM 66.2 °F 66.2 °F 100% 29.83 in 10.0 mi North - - N/A   Unknown
10:15 PM 64.4 °F 64.4 °F 100% 29.83 in 10.0 mi North - - N/A   Unknown
10:35 PM 62.6 °F 62.6 °F 100% 29.82 in 10.0 mi North - - N/A   Unknown
10:55 PM 62.6 °F 62.6 °F 100% 29.82 in 10.0 mi North - - N/A   Unknown
11:15 PM 62.6 °F 62.6 °F 100% 29.82 in 10.0 mi North - - N/A   Unknown
11:35 PM 62.6 °F 62.6 °F 100% 29.82 in 10.0 mi North - - N/A   Unknown
11:55 PM 62.6 °F 62.6 °F 100% 29.82 in 10.0 mi North - - N/A   Unknown